Weather reports worldwide

Advertisment
Menorca/Mahon, Spain (8314): temperature & dewpoint: 05.12.2019 10:00:00 - 11.12.2019 10:00:00 (CET)Menorca/Mahon, Spain (8314): wind speed & gusts: 05.12.2019 10:00:00 - 11.12.2019 10:00:00 (CET)Menorca/Mahon, Spain (8314): wind direction: 05.12.2019 10:00:00 - 11.12.2019 10:00:00 (CET)Menorca/Mahon, Spain (8314): reduced air pressure: 05.12.2019 10:00:00 - 11.12.2019 10:00:00 (CET)Menorca/Mahon, Spain (8314): visibility: 05.12.2019 10:00:00 - 11.12.2019 10:00:00 (CET)
Date & Time tt [°C] td [°C] ff [km/h] ff [kn] fx [km/h] fx [kn] dd ppp [hPa] vv [km]
11.12.2019 10:00:00 - - - - - - - - -
11.12.2019 09:00:00 10,0 8,4 5 3 - - WSW 1019,6 -
11.12.2019 08:00:00 4,0 2,5 8 4 - - WNW 1019,8 25
11.12.2019 07:00:00 5,7 3,7 4 2 - - NW 1020,1 20
11.12.2019 06:00:00 7,2 4,3 8 4 - - NW 1020,6 -
11.12.2019 05:00:00 6,8 3,4 13 7 - - NW 1021,0 -
11.12.2019 04:00:00 5,9 2,4 11 6 - - NNW 1021,6 -
11.12.2019 03:00:00 6,9 2,3 13 7 - - NW 1022,0 -
11.12.2019 02:00:00 6,5 2,3 11 6 - - NW 1022,3 -
11.12.2019 01:00:00 5,9 2,7 11 6 - - NW 1022,8 -
11.12.2019 00:00:00 5,7 2,7 9 5 - - NNW 1022,8 -
10.12.2019 23:00:00 5,5 2,8 8 4 - - NW 1022,9 -
10.12.2019 22:00:00 6,8 2,5 4 2 - - WNW 1023,0 30
10.12.2019 21:00:00 8,5 3,7 11 6 - - N 1022,9 -
10.12.2019 20:00:00 9,5 3,0 11 6 - - N 1022,9 -
10.12.2019 19:00:00 10,3 2,8 11 6 - - NNW 1022,5 30
10.12.2019 18:00:00 11,6 1,3 18 10 - - N 1022,2 -
10.12.2019 17:00:00 12,3 1,7 29 16 - - N 1022,2 -
10.12.2019 16:00:00 12,7 -1,4 42 23 - - N 1021,6 25
10.12.2019 15:00:00 13,0 0,5 39 21 - - N 1021,6 -
10.12.2019 14:00:00 13,0 1,0 46 25 - - N 1021,8 22
10.12.2019 13:00:00 12,8 1,6 48 26 - - N 1022,3 20
10.12.2019 12:00:00 12,3 2,8 50 27 76 41 N 1023,0 -
10.12.2019 11:00:00 12,3 3,7 44 24 81 44 N 1023,1 -
10.12.2019 10:00:00 11,8 3,1 48 26 - - N 1022,5 18
10.12.2019 09:00:00 11,3 2,3 48 26 - - N 1022,0 -
10.12.2019 08:00:00 11,1 0,5 41 22 76 41 N 1021,8 22
10.12.2019 07:00:00 11,1 2,3 41 22 - - N 1021,7 20
10.12.2019 06:00:00 11,3 4,1 39 21 - - N 1021,4 -
10.12.2019 05:00:00 11,8 4,6 39 21 - - N 1021,6 -
10.12.2019 04:00:00 11,3 4,5 31 17 - - NNW 1021,7 -
10.12.2019 03:00:00 11,6 3,8 29 16 - - N 1021,3 -
10.12.2019 02:00:00 12,3 3,6 29 16 - - NNW 1021,6 -
10.12.2019 01:00:00 11,3 6,6 24 13 - - NNW 1022,1 -
10.12.2019 00:00:00 10,4 7,5 11 6 - - NNW 1022,3 -
09.12.2019 23:00:00 9,3 8,1 15 8 - - N 1022,0 -
09.12.2019 22:00:00 8,7 7,1 11 6 - - NNW 1021,7 17
09.12.2019 21:00:00 9,6 7,7 13 7 - - N 1021,4 -
09.12.2019 20:00:00 8,6 7,0 13 7 - - N 1021,2 -
09.12.2019 19:00:00 8,9 7,0 9 5 - - N 1020,6 22
09.12.2019 18:00:00 10,6 7,5 8 4 - - N 1019,9 -
09.12.2019 17:00:00 12,6 7,6 16 9 - - NNW 1019,5 -
09.12.2019 16:00:00 14,2 7,2 16 9 - - NW 1019,5 25
09.12.2019 15:00:00 15,0 6,7 18 10 - - NW 1019,2 -
09.12.2019 14:00:00 15,0 7,8 18 10 - - WNW 1019,3 30
09.12.2019 13:00:00 16,1 7,3 24 13 - - W 1020,0 30
09.12.2019 12:00:00 15,4 9,3 29 16 - - W 1020,3 -
09.12.2019 11:00:00 15,3 10,0 26 14 - - WNW 1021,0 -
09.12.2019 10:00:00 14,5 12,2 9 5 - - WNW 1020,8 25
09.12.2019 09:00:00 12,2 11,3 9 5 - - NNW 1020,4 -
09.12.2019 08:00:00 10,8 10,2 8 4 - - NW 1020,4 15
09.12.2019 07:00:00 10,8 10,3 8 4 - - WNW 1019,9 18
09.12.2019 06:00:00 11,3 10,8 9 5 - - NW 1020,3 -
09.12.2019 05:00:00 12,3 11,8 15 8 - - WNW 1019,8 -
09.12.2019 04:00:00 11,5 10,9 8 4 - - W 1019,9 -
09.12.2019 03:00:00 11,3 10,8 11 6 - - W 1020,5 -
09.12.2019 02:00:00 11,5 11,0 8 4 - - W 1020,7 -
09.12.2019 01:00:00 10,7 10,2 8 4 - - NNW 1021,4 -
09.12.2019 00:00:00 10,7 10,1 8 4 - - SW 1021,2 -
08.12.2019 23:00:00 10,3 9,8 11 6 - - WSW 1021,4 -
08.12.2019 22:00:00 8,7 7,9 5 3 - - WNW 1021,7 15
08.12.2019 21:00:00 10,1 9,2 8 4 - - NNW 1021,7 -
08.12.2019 20:00:00 10,6 9,7 11 6 - - NNW 1021,6 -
08.12.2019 19:00:00 11,7 10,3 5 3 - - NNW 1021,3 15
08.12.2019 18:00:00 13,1 10,8 11 6 - - WSW 1021,1 -
08.12.2019 17:00:00 14,8 11,4 13 7 - - WSW 1021,1 -
08.12.2019 16:00:00 15,7 11,7 11 6 - - WSW 1021,3 25
08.12.2019 15:00:00 15,2 11,2 16 9 - - WSW 1021,4 -
08.12.2019 14:00:00 15,8 11,2 13 7 - - W 1021,8 27
08.12.2019 13:00:00 15,2 10,9 13 7 - - W 1022,7 27
08.12.2019 12:00:00 16,4 11,5 13 7 - - W 1023,2 -
08.12.2019 11:00:00 15,2 12,0 11 6 - - W 1023,7 -
08.12.2019 10:00:00 14,3 13,2 8 4 - - W 1023,6 17
08.12.2019 09:00:00 11,2 11,0 8 4 - - WNW 1023,4 -
08.12.2019 08:00:00 6,0 5,7 8 4 - - WNW 1023,4 17
08.12.2019 07:00:00 7,6 7,3 8 4 - - NW 1023,2 12
08.12.2019 06:00:00 6,0 5,7 5 3 - - NW 1022,9 -
08.12.2019 05:00:00 6,7 6,4 9 5 - - NW 1023,0 -
08.12.2019 04:00:00 8,2 7,9 9 5 - - NW 1023,1 -
08.12.2019 03:00:00 6,7 6,3 8 4 - - NW 1023,4 -
08.12.2019 02:00:00 7,6 7,3 9 5 - - NW 1023,6 -
08.12.2019 01:00:00 7,6 7,2 8 4 - - NW 1023,9 -
08.12.2019 00:00:00 9,8 9,5 11 6 - - NW 1024,2 -
07.12.2019 23:00:00 7,8 7,4 9 5 - - NNW 1024,2 -
07.12.2019 22:00:00 8,2 7,8 5 3 - - NNW 1023,8 12
07.12.2019 21:00:00 9,3 8,7 2 1 - - N 1023,5 -
07.12.2019 20:00:00 8,8 8,0 5 3 - - NE 1023,4 -
07.12.2019 19:00:00 10,2 9,0 5 3 - - NNE 1023,2 25
07.12.2019 18:00:00 12,0 10,6 8 4 - - E 1022,7 -
07.12.2019 17:00:00 13,5 11,1 5 3 - - ESE 1022,6 -
07.12.2019 16:00:00 15,4 11,7 8 4 - - ESE 1022,4 25
07.12.2019 15:00:00 15,4 11,6 11 6 - - ESE 1022,1 -
07.12.2019 14:00:00 18,1 11,8 2 1 - - ENE 1022,2 27
07.12.2019 13:00:00 18,2 12,0 4 2 - - NW 1023,2 25
07.12.2019 12:00:00 14,7 11,8 4 2 - - NW 1023,9 -
07.12.2019 11:00:00 14,9 12,7 5 3 - - WNW 1024,3 -
07.12.2019 10:00:00 10,0 9,7 4 2 - - NW 1023,9 20
07.12.2019 09:00:00 6,8 6,5 2 1 - - WSW 1023,6 -
07.12.2019 08:00:00 6,5 6,1 0 0 - - N 1023,1 17
07.12.2019 07:00:00 7,7 7,3 4 2 - - NNW 1023,0 12
07.12.2019 06:00:00 9,0 8,5 9 5 - - NNW 1023,1 -
07.12.2019 05:00:00 8,2 7,8 8 4 - - NW 1023,5 -
07.12.2019 04:00:00 9,1 8,8 11 6 - - NNW 1023,4 -
07.12.2019 03:00:00 8,9 8,4 9 5 - - NNW 1023,3 -
07.12.2019 02:00:00 8,0 7,6 8 4 - - NNW 1022,9 -
07.12.2019 01:00:00 8,1 7,7 8 4 - - NNW 1023,1 -
07.12.2019 00:00:00 7,8 7,2 4 2 - - NNW 1023,6 -
06.12.2019 23:00:00 8,7 8,1 4 2 - - NNW 1023,7 -
06.12.2019 22:00:00 9,6 9,0 9 5 - - N 1023,5 15
06.12.2019 21:00:00 10,5 9,9 11 6 - - N 1023,5 -
06.12.2019 20:00:00 11,2 10,4 13 7 - - N 1023,3 -
06.12.2019 19:00:00 10,7 10,1 11 6 - - N 1022,7 12
06.12.2019 18:00:00 11,6 10,2 8 4 - - NNE 1022,3 -
06.12.2019 17:00:00 13,6 11,6 9 5 - - N 1021,9 -
06.12.2019 16:00:00 16,2 12,3 13 7 - - N 1021,9 20
06.12.2019 15:00:00 18,0 12,3 13 7 - - WSW 1021,8 -
06.12.2019 14:00:00 17,8 13,3 11 6 - - W 1022,1 25
06.12.2019 13:00:00 - - - - - - - - -
06.12.2019 12:00:00 16,1 12,4 9 5 - - WSW 1023,2 -
06.12.2019 11:00:00 14,9 13,8 5 3 - - WNW 1023,8 -
06.12.2019 10:00:00 12,5 12,2 5 3 - - WNW 1023,5 25
06.12.2019 09:00:00 10,3 10,0 4 2 - - NW 1022,9 -
06.12.2019 08:00:00 9,9 9,6 8 4 - - NW 1022,5 20
06.12.2019 07:00:00 9,0 8,7 4 2 - - WNW 1022,3 20
06.12.2019 06:00:00 8,1 7,8 9 5 - - WNW 1021,9 -
06.12.2019 05:00:00 9,9 9,6 9 5 - - NW 1021,6 -
06.12.2019 04:00:00 9,4 9,1 5 3 - - NW 1021,6 -
06.12.2019 03:00:00 8,3 8,0 8 4 - - W 1021,6 -
06.12.2019 02:00:00 8,8 8,5 8 4 - - WNW 1021,5 -
06.12.2019 01:00:00 8,8 8,5 5 3 - - WNW 1021,4 -
06.12.2019 00:00:00 7,8 7,4 8 4 - - SW 1021,7 -
05.12.2019 23:00:00 8,9 8,4 5 3 - - NW 1021,3 -
05.12.2019 22:00:00 9,2 8,6 5 3 - - WNW 1021,0 28
05.12.2019 21:00:00 9,5 8,7 8 4 - - NNW 1020,8 -
05.12.2019 20:00:00 10,6 9,8 8 4 - - NW 1020,4 -
05.12.2019 19:00:00 10,6 9,7 4 2 - - SW 1019,9 25
05.12.2019 18:00:00 12,2 10,6 8 4 - - W 1018,8 -
05.12.2019 17:00:00 15,4 12,0 4 2 - - WNW 1018,3 -
05.12.2019 16:00:00 16,5 12,0 9 5 - - WSW 1017,9 25
05.12.2019 15:00:00 15,9 11,7 11 6 - - SW 1017,4 -
05.12.2019 14:00:00 17,4 10,4 9 5 - - SW 1016,8 20
05.12.2019 13:00:00 17,0 11,3 8 4 - - SW 1016,5 20
05.12.2019 12:00:00 17,4 12,7 9 5 - - S 1016,7 -
05.12.2019 11:00:00 17,1 12,5 4 2 - - SW 1016,4 -
05.12.2019 10:00:00 15,5 13,7 0 0 - - N 1015,7 15

tt = temperature
td = dewpoint
ff = wind speed
fx = gusts
dd = wind direction
ppp = reduced air pressure
vv = visibility

Next stations